ONEWEB-0699, 61605

Orbit data source: Space-Track

ONEWEB-0699, 61605 is a payload satellite owned by Eut. One Web (UK) in LEO that was launched on Sun, 20 Oct 2024 UTC via an FALCON 9 launch vehicle from the Air Force Western Test Range (AFWTR). Payload-class satellites include a variety of spacecraft equipped with specific instruments for various scientific and technological missions. These include communications satellites like Starlink; space stations such as the ISS; scientific satellites like the Hubble; Earth observation satellites from companies like Planet Labs, Umbra, and HawkEye 360; GPS; miniature CubeSats for education and research; and military/defense satellites.

Loading next visibility...
Identifier
61605, 2024-188M
Orbit
LEO
Country
Flag of UKUK
Related business
Manufacturer
One Web
Mission
Operational Commercial Communications
Bus & Motor
ARROW, Unknown motor
Mass
148 kg wet, ~140 kg dry
Launch date (UTC)
2024-10-20 (1 year ago)
Launch vehicle
FALCON 9
Launch site
Air Force Western Test Range (AFWTR)
Object type
Payload
Rocket body
Debris
Shape & HBR
Trap Box + 2 Pan, 6.7 m
Radar Cross Section
3.464 m², Large (>1 m²)

Expand to show TLE details & history
Last TLE update: 12 hours ago

TLE from 12 hours ago
0 ONEWEB-0699
1 61605U 24188M   25351.25558006 -.00000530  00000-0 -15553-2 0  9999
2 61605  87.8818  72.5300 0001309  82.6949 277.4327 13.10372330 59489
Epoch: 2025-12-17T06:08Z
TLE epoch observation values (Epoch: 2025-12-17T06:08:02.117Z)
Latitude
-0.00002°
Longitude
-105.60688°
Altitude
1,224.478 km
Speed
7.242 km/s
True Right ascension
04h 50m 07s
True Declination
0° 00' 00"
Sunlit
Object was in full shadow at epoch
Visualization orbit readout
Latitude
Unknown
Longitude
Unknown
Altitude
Unknown
Speed
Unknown
Apparent Right ascension
Unknown
Apparent Declination
Unknown
Sunlit
N/A
Visualization observer readout
Local Sidereal Time
16:42:34
Azimuth
Unknown
Elevation
Unknown
Doppler factor
Unknown
Orbital elements
Apogee altitude
1,219.833 km
Perigee altitude
1,217.844 km
Semi-major axis
7,596.976 km
Eccentricity
0.00013
Inclination
87.8818°
RAAN
72.53°
Arg. of periapsis
82.6949°
True anomaly
277.41783°
Mean anomaly
277.4327°
Eccentric anomaly
277.42526°
Mean motion
3.2778 °/min
Orbital period
109.83 mins
BSTAR
-0.0015553
Loading maneuver chart data...
Computing Atmospheric mass density...
Loading historical data...
Loading historical data...
Loading historical data...
Loading historical data...
Loading historical data...
Loading historical data...
Loading historical data...

Documentation

Showing up to 5 results
|